Погода в Андерматте

Швейцария     46°38′10″N   8°35′26″E
темп.,
°C
ветер,
м/с
пор.,
м/с
влажн.,
%
обл.,
%
осадки,
мм/ч
давл.,
гПа
погр.,
м
6 марта, сб
сб601:00−12ююв339295 0.6 102622
04:00−11ююв33650 0.0 102622
07:00−10ю44590 0.0 102824
10:00−2ююв33770 0.0 1027232
13:00−1ююв23972 0.0 1027517
16:00−2ю119167 0.1 1027399
19:00−8ю228672 0.1 102821
22:00−8ю33770 0.0 102922
7 марта, вс
вс701:00−8ю33620 0.0 102923
04:00−8ююз22500 0.0 102722
07:00−9ююз12580 0.0 102721
10:00−3ссз11720 0.0 1024238
13:00−2с21970 0.0 1022317
16:00−3ссз119393 0.3 1020278
19:00−7з119380 0.3 102021
22:00−7юз1294100 0.3 102121
8 марта, пн
пн801:00−5зюз1197100 1.0 102121
04:00−7з119996 0.5 101921
07:00−6ссз119997 0.8 102023
10:00−4ссз229599 0.3 1019303
13:00−4с219799 0.4 1018278
16:00−4с219599 0.1 1016293
19:00−8с019897 0.2 101921
22:00−12ю228546 0.0 102021
9 марта, вт
вт901:00−11ю225331 0.0 102021
04:00−10юз124096 0.0 101921
07:00−10юз114794 0.0 102021
10:00−5ссз216397 0.0 1019237
13:00−4с218599 0.0 1018396
16:00−4с2293100 0.1 1017369
19:00−9ссв1198100 0.1 102021
22:00−11ю129597 0.0 102221
10 марта, ср
ср1001:00−11ю227760 0.0 102321
04:00−11ююз22610 0.0 102221
07:00−10ююз22550 0.0 102321
10:00−3з115532 0.0 1023173
13:00−1зюз118162 0.0 1021241
16:00−1з128656 0.0 1020203
19:00−6юз227778 0.0 102221
22:00−5ююз3348100 0.0 102223